GFSMA_sfc_temp_192.txt.gz
Temp
73 72 73 70 70 70 70 69 69 69 68 73 77 75 77 77 74 73 67 73 74 75 76 76 75 75 75 74 74 74 73 73 74 73 73 74 73 72 72 73 73 73 74
74 75 74 71 71 69 69 69 67 65 66 67 76 77 77 76 73 72 71 68 73 74 75 75 75 75 75 74 74 73 73 73 73 73 72 73 73 73 73 72 72 72 72
74 74 70 71 68 70 70 68 67 67 66 73 72 75 76 76 74 71 72 71 70 72 73 74 75 75 75 74 74 73 72 72 72 72 72 72 71 72 72 72 72 72 72
77 72 72 69 69 67 67 67 67 67 67 69 72 73 74 75 73 71 71 69 66 69 70 72 74 74 74 74 74 73 73 72 72 72 71 71 71 71 71 72 71 71 71
75 72 69 67 68 66 66 67 66 66 65 68 71 71 72 70 69 72 70 67 66 66 65 71 71 72 74 74 74 74 72 72 72 71 71 71 71 70 71 71 71 71 71
75 74 69 69 67 67 66 66 66 69 68 67 70 66 64 65 66 67 66 68 66 65 65 67 67 68 72 73 73 74 73 72 72 71 71 70 71 70 71 71 70 70 70
74 72 70 68 68 67 66 67 66 66 64 64 62 60 60 62 63 66 68 64 66 68 65 64 64 65 67 71 72 73 74 73 72 72 71 71 70 70 70 69 70 70 70
73 73 71 71 68 66 69 65 65 62 62 63 61 60 56 58 61 64 66 63 64 64 67 65 63 65 63 63 66 70 71 73 72 71 70 70 70 70 70 69 69 69 69
74 73 71 70 68 67 63 64 64 63 59 61 63 61 55 53 56 59 61 62 61 61 63 62 62 63 63 63 66 66 68 70 71 71 71 70 69 69 69 68 68 68 68
73 72 73 71 69 68 65 64 67 66 62 59 61 66 63 60 54 52 61 60 61 61 61 61 61 61 62 62 64 66 67 68 69 70 70 70 70 69 68 68 68 67 67
72 72 72 71 69 66 66 65 65 64 65 61 60 60 60 59 59 55 52 58 61 59 59 60 59 60 61 61 60 62 66 67 68 69 69 69 69 69 68 67 67 66 66
68 70 71 69 69 67 66 67 66 65 63 63 62 63 59 57 57 54 53 54 56 55 55 55 55 56 57 60 61 62 64 64 67 67 67 68 67 68 68 67 67 66 66
64 66 68 69 68 70 67 66 65 64 63 61 60 59 59 59 59 59 55 54 53 56 54 53 53 54 56 57 59 60 61 64 65 65 65 65 65 66 67 66 66 65 65
60 62 68 68 67 68 66 66 65 63 63 61 59 59 58 59 59 58 55 54 52 53 51 50 52 52 53 55 57 61 60 61 62 62 62 62 63 63 64 65 65 64 63
60 60 63 66 68 67 66 65 63 62 62 61 59 59 58 59 59 57 57 56 54 49 49 48 49 51 52 52 55 56 58 60 60 60 59 59 60 61 61 61 63 62 61
60 61 61 64 65 64 64 64 63 63 61 60 61 62 59 58 60 59 56 57 55 52 47 49 48 49 49 51 52 51 55 57 58 58 57 58 59 59 59 58 58 58 59
60 60 62 62 63 64 65 62 62 63 62 62 61 61 60 58 57 57 56 56 55 52 47 47 48 48 47 47 48 49 50 51 55 57 57 56 56 56 56 55 55 56 56
63 64 64 62 63 63 62 62 61 63 60 59 60 58 59 59 56 56 56 54 54 54 50 45 46 45 44 45 45 45 47 50 51 56 56 56 56 55 55 55 54 55 56
62 62 63 63 62 62 62 61 61 59 61 60 60 58 58 57 55 55 54 52 51 51 49 47 44 45 46 46 45 46 46 47 50 56 56 56 55 55 54 54 53 53 53
59 59 61 62 61 61 62 61 60 59 58 57 57 57 57 55 54 53 51 50 49 47 47 45 44 44 45 47 45 42 41 44 44 51 54 54 54 54 54 54 53 51 51
58 60 60 61 61 60 61 59 58 56 55 55 55 56 56 56 57 54 51 49 48 47 46 45 45 46 45 40 40 41 39 40 40 41 40 42 41 42 45 50 49 49 49
58 59 60 59 58 59 58 57 56 54 53 52 50 52 54 56 56 57 56 56 52 48 47 46 44 39 37 37 39 38 37 36 34 39 36 38 40 37 40 43 49 49 48
57 57 58 58 57 56 57 56 55 53 51 51 51 51 52 53 53 53 54 54 54 54 50 42 38 35 35 37 37 36 35 34 32 35 35 35 37 37 43 47 49 48 47
56 56 56 56 55 56 57 56 55 52 50 51 51 51 51 52 51 47 45 43 43 43 43 45 40 38 39 39 38 39 37 36 35 37 34 30 34 32 39 42 47 47 46
55 56 56 55 54 53 56 55 53 51 51 50 53 53 50 49 52 49 43 40 41 43 51 51 50 50 49 49 45 39 35 33 31 29 35 30 31 30 38 37 40 47 46
53 53 53 54 54 52 54 54 53 53 50 49 50 50 53 50 52 50 41 39 37 36 38 39 39 41 42 44 45 37 35 32 29 27 31 29 29 29 28 32 34 35 35

GFSMA_sfc_temp_195.txt.gz
Temp
69 69 70 68 68 68 68 67 67 67 66 67 72 72 72 71 71 68 67 73 74 75 76 76 75 75 75 74 73 73 73 74 73 73 73 73 72 73 72 72 72 72 73
70 69 70 69 67 69 68 67 66 64 65 66 70 71 74 73 69 69 69 70 73 74 75 75 75 75 75 74 73 72 72 72 72 72 72 72 72 73 72 72 72 71 72
71 69 69 68 67 68 67 67 65 65 64 67 66 69 73 71 71 70 67 69 68 72 73 74 75 75 75 74 74 73 73 72 72 71 71 71 71 72 72 72 71 71 71
71 69 68 67 67 67 66 65 65 64 65 66 65 66 71 71 69 69 69 68 66 67 69 73 73 74 74 74 74 73 72 72 72 71 71 71 71 71 71 71 71 71 71
73 70 69 67 67 64 64 66 65 65 65 65 66 67 67 69 67 68 67 66 64 64 64 70 71 72 74 74 74 73 72 72 71 71 71 71 71 70 70 71 71 71 71
71 72 68 67 66 64 64 64 65 64 64 65 69 64 62 63 63 63 63 64 65 64 63 65 65 67 72 73 74 73 73 72 72 71 71 70 70 70 70 70 70 70 70
71 70 69 68 67 65 65 66 64 62 63 62 61 59 59 60 61 63 66 64 65 66 63 62 64 65 65 71 73 73 73 73 72 71 71 71 70 70 70 69 69 69 70
67 71 68 66 67 64 64 63 62 60 60 60 58 57 54 57 59 62 64 63 62 65 64 65 62 63 63 61 65 70 71 72 72 71 70 70 70 70 69 69 68 69 69
65 62 65 67 67 66 63 62 61 61 58 59 61 58 52 51 57 60 61 62 59 60 61 61 61 62 62 62 65 66 68 70 71 71 71 70 69 69 68 68 68 68 68
63 65 65 67 67 65 64 63 64 61 60 58 59 63 58 57 52 51 60 60 60 60 60 61 60 60 61 61 63 64 67 68 68 70 71 70 70 69 68 68 67 67 68
64 65 67 68 66 65 65 64 63 62 61 58 58 57 57 56 56 53 51 56 57 57 56 56 57 58 59 60 60 63 64 64 66 66 69 69 69 69 68 67 67 67 67
64 67 66 66 66 66 66 65 63 62 62 61 61 58 57 55 54 53 51 55 54 53 54 54 54 55 56 57 61 61 63 64 66 67 67 67 67 67 67 68 67 66 66
59 63 64 64 65 66 67 64 62 61 61 60 59 57 58 57 57 55 53 52 53 54 53 52 52 53 55 56 58 60 61 61 64 65 64 64 65 65 66 66 66 65 65
59 60 61 63 64 64 64 63 62 60 61 59 58 58 57 57 58 56 54 53 52 52 49 49 51 51 52 54 57 60 60 62 62 62 61 61 62 63 63 63 65 64 63
60 61 61 62 63 63 63 62 62 60 61 60 58 58 57 57 56 56 55 55 51 49 48 47 49 50 51 51 55 56 58 60 60 59 59 59 60 60 60 60 63 62 62
58 60 61 62 61 62 63 62 61 60 59 59 59 58 57 56 56 55 54 54 53 50 46 49 47 48 49 50 53 52 55 57 58 58 57 57 58 58 58 57 58 58 58
60 61 61 60 60 61 62 61 60 60 59 59 61 59 56 56 56 54 54 55 53 50 46 46 47 47 46 47 48 50 51 52 53 57 57 56 56 56 56 56 56 56 57
61 61 62 61 60 61 62 61 61 62 60 60 59 59 56 57 54 54 53 53 53 51 49 44 46 44 44 45 46 47 48 50 50 56 57 56 56 55 55 55 54 54 55
59 60 62 61 61 60 61 61 60 60 60 60 59 58 55 56 55 54 52 50 50 50 49 46 44 45 45 46 45 44 43 42 49 55 56 56 55 55 54 53 52 52 53
60 60 61 61 61 61 60 59 58 57 57 57 57 57 56 55 53 52 50 49 48 47 46 46 45 44 45 46 42 38 37 39 39 47 51 52 52 54 53 52 51 50 50
58 59 60 60 61 60 59 57 57 56 55 55 55 55 55 56 56 54 50 48 48 46 46 44 41 42 42 37 36 37 35 35 36 36 37 38 39 39 43 49 49 49 48
59 59 59 59 58 58 58 57 56 54 53 52 51 53 55 56 56 57 57 56 50 45 44 40 36 36 33 34 34 34 34 33 30 36 34 34 36 36 38 41 50 49 48
59 58 58 57 56 56 57 56 55 52 51 51 52 52 52 52 51 50 52 52 52 51 47 39 35 32 31 33 34 33 32 30 27 32 33 30 33 35 40 45 48 47 47
56 56 56 56 55 55 56 55 54 51 51 51 51 51 48 47 47 44 43 42 41 42 42 43 37 35 35 34 35 36 33 31 32 34 31 27 29 35 40 38 46 47 47
55 55 55 54 53 53 55 54 53 51 50 51 51 49 48 45 49 49 42 41 41 43 49 49 49 49 48 47 42 37 31 31 28 28 30 29 27 34 35 33 35 44 45
54 54 53 53 53 52 54 55 54 51 49 49 49 48 50 47 49 47 40 39 35 34 37 36 35 38 39 43 43 33 32 29 27 26 30 29 27 27 27 29 30 31 32

GFSMA_sfc_temp_201.txt.gz
Temp
66 65 67 68 69 67 67 67 66 66 65 65 65 65 64 69 66 69 67 73 74 75 75 76 75 74 74 74 73 73 73 73 73 72 72 72 72 72 72 73 73 73 73
68 66 66 67 67 66 65 66 66 65 64 63 65 66 65 66 68 68 67 66 73 74 75 75 75 75 74 73 73 73 73 73 73 72 72 72 71 71 71 72 73 73 72
69 68 67 67 67 67 67 66 65 64 63 64 63 65 66 65 66 67 66 67 69 71 73 74 75 75 74 73 73 72 72 73 73 72 71 71 71 72 71 72 72 72 72
69 67 66 67 67 67 66 66 64 63 62 62 62 64 64 66 66 67 67 65 64 64 68 71 72 74 74 73 73 72 72 72 72 72 72 71 71 71 70 71 72 72 72
70 67 66 67 67 66 66 65 64 62 61 61 63 62 64 64 64 66 64 63 63 63 62 69 70 71 73 73 73 72 72 71 72 72 71 71 70 70 70 70 70 71 71
69 67 67 66 65 64 64 64 64 63 61 62 64 61 62 62 63 62 63 63 62 63 62 64 63 64 72 70 73 73 72 71 71 71 71 71 70 69 70 70 70 70 71
67 66 66 67 66 65 65 64 63 63 61 61 60 60 60 61 60 60 60 60 62 63 61 63 63 62 64 69 70 71 73 72 71 71 70 71 70 69 69 69 70 69 69
65 66 65 65 64 63 63 63 62 61 60 61 59 57 56 58 58 59 59 60 62 63 61 62 62 62 61 62 65 69 70 71 71 71 70 70 70 70 69 69 69 70 69
64 65 65 65 64 63 62 63 62 62 59 61 61 57 52 53 55 58 59 60 60 60 61 61 61 61 61 61 63 64 66 66 68 71 71 70 70 69 69 69 69 70 69
62 64 65 65 64 63 62 63 63 61 62 60 58 60 57 56 51 52 58 57 57 56 56 57 57 58 59 60 62 63 64 65 66 67 69 69 69 69 68 68 68 68 69
62 62 63 62 61 61 62 63 61 60 61 60 57 54 54 53 52 51 52 53 54 54 54 54 54 55 56 57 59 61 62 63 65 66 66 66 66 67 68 68 68 68 68
60 61 61 61 61 62 62 62 62 61 60 59 57 56 55 53 51 51 53 53 51 51 52 52 52 53 54 55 58 61 62 63 63 63 65 65 65 65 66 66 67 67 67
59 58 61 62 62 63 63 63 61 61 60 60 57 57 57 56 55 53 55 53 52 52 51 51 51 51 53 54 57 60 61 61 62 62 61 61 63 64 64 64 65 66 66
61 60 61 63 63 63 62 62 60 60 59 58 57 57 55 55 56 56 56 55 50 49 48 48 50 49 51 55 58 60 60 61 61 60 60 60 61 63 63 63 62 64 62
60 63 63 61 63 63 62 61 59 58 58 58 56 55 55 54 55 54 58 56 54 48 47 46 48 49 50 53 55 56 57 59 59 59 59 60 60 61 61 62 61 61 61
60 61 61 59 62 62 61 60 58 59 58 57 57 55 54 53 53 54 55 54 52 51 46 48 46 47 49 51 53 52 54 57 58 58 57 57 58 59 59 59 59 59 59
58 59 60 59 61 61 61 60 58 58 58 56 56 55 53 54 52 52 52 51 52 51 45 45 46 46 46 46 47 48 49 51 53 57 57 56 56 56 56 56 56 56 56
57 58 61 61 61 60 60 59 58 59 57 55 55 55 54 54 51 50 50 51 50 50 48 44 44 43 43 44 43 42 45 48 50 56 56 55 54 53 53 53 53 53 53
56 59 60 61 61 60 60 59 59 58 57 56 57 56 54 52 49 49 50 49 49 50 48 45 43 44 44 43 41 39 36 36 44 50 52 54 53 53 52 51 50 50 51
57 58 60 60 60 60 60 59 59 59 58 58 57 55 54 52 49 49 49 48 48 47 47 44 43 42 41 40 36 34 33 34 34 41 44 46 48 50 51 50 50 49 49
58 59 59 59 59 59 59 59 58 57 56 54 54 54 53 54 54 53 49 48 47 45 45 41 36 36 36 34 33 32 30 31 32 31 34 35 36 36 40 46 48 48 48
58 59 59 59 57 58 58 58 57 55 55 54 53 54 55 55 55 55 54 51 46 42 38 35 33 32 29 30 31 31 30 29 29 33 30 35 35 34 36 39 48 48 48
59 58 58 57 56 57 58 57 56 55 53 53 52 52 52 53 52 51 52 52 51 50 46 36 32 29 30 30 30 27 26 26 25 28 29 29 29 30 37 39 47 47 46
58 57 56 56 55 56 57 56 55 52 50 49 47 46 44 43 43 42 40 39 39 38 38 39 33 31 32 31 31 30 27 26 27 29 28 27 27 28 30 30 44 44 45
55 55 55 54 53 53 55 53 51 49 47 46 46 46 45 44 49 47 41 39 39 41 50 50 48 47 46 44 38 32 29 28 27 27 27 27 26 28 27 27 30 41 42
54 54 53 53 53 51 53 53 51 48 46 45 46 46 49 46 48 46 37 35 31 28 33 33 31 34 36 40 39 29 29 28 26 26 29 27 25 25 26 27 27 27 29

GFSMA_sfc_temp_204.txt.gz
Temp
69 67 67 66 68 68 68 67 66 65 65 64 64 65 64 64 67 69 68 71 74 75 75 76 75 75 74 73 73 73 73 73 73 72 72 72 72 73 72 73 73 73 73
69 66 65 66 67 67 67 66 66 65 64 64 64 64 64 64 66 67 67 68 72 74 75 75 75 75 74 74 73 73 73 73 72 72 71 72 72 72 72 73 73 73 73
67 66 66 65 66 67 67 65 65 64 63 63 62 64 64 63 65 66 67 66 66 71 73 74 75 75 74 74 73 72 72 72 73 72 72 72 71 72 71 72 72 72 73
67 66 65 66 67 67 66 65 64 64 63 62 61 63 63 64 65 65 67 66 65 64 68 72 73 74 74 73 73 73 72 72 72 72 71 72 71 71 71 71 71 72 72
67 66 66 66 66 66 66 66 64 63 63 62 61 61 62 62 64 65 64 64 63 62 62 69 71 72 73 73 73 73 72 72 72 72 72 71 71 71 71 70 70 71 72
66 67 67 66 65 66 65 64 63 63 62 63 64 61 61 62 63 63 63 63 62 62 62 63 64 65 71 71 71 73 72 72 72 71 71 71 70 71 70 71 70 70 71
65 66 67 65 65 64 66 65 63 63 62 62 60 59 60 61 62 62 61 61 61 61 61 63 63 62 62 68 70 72 72 73 72 71 71 71 70 70 71 71 70 70 69
63 65 66 65 65 64 63 64 63 62 61 62 58 58 56 58 59 60 61 60 61 61 60 61 62 62 61 62 64 67 69 69 69 71 71 70 70 70 70 70 71 70 69
64 64 65 65 64 64 63 64 64 62 60 61 61 58 54 54 56 58 58 59 58 58 59 60 60 60 60 60 62 63 65 67 68 68 70 70 70 69 70 69 70 70 70
64 64 64 65 64 64 63 63 63 62 61 59 59 59 57 57 54 53 56 55 56 55 55 56 56 57 58 59 61 63 64 65 66 68 67 68 68 67 68 69 69 69 69
64 63 63 65 64 63 62 62 62 61 61 61 60 55 55 55 53 54 51 52 53 53 53 53 54 54 55 56 58 61 63 63 63 65 66 67 67 67 66 67 68 68 67
62 62 62 63 62 61 61 61 60 60 60 62 60 58 56 54 52 52 53 52 50 51 51 52 51 52 54 54 58 61 62 63 63 63 63 64 65 66 66 65 66 67 66
59 62 61 61 60 60 61 61 60 60 60 60 59 58 56 56 54 53 56 52 51 52 51 50 50 51 53 56 59 60 62 62 62 62 62 62 63 64 65 65 64 66 65
59 62 61 62 61 61 62 61 60 61 60 59 57 57 56 55 57 57 54 52 49 49 48 49 50 49 52 55 58 59 59 60 60 61 61 62 63 64 64 64 63 63 62
59 60 61 61 62 64 62 61 60 59 59 58 57 56 55 54 55 55 58 56 52 48 46 46 48 49 51 52 55 56 56 59 59 59 59 59 60 61 62 62 61 61 61
59 59 61 61 62 63 61 60 58 58 57 57 57 55 54 53 54 54 55 52 54 48 45 47 45 47 48 50 51 51 54 56 58 58 57 57 57 58 58 58 58 58 58
58 58 59 60 61 59 60 59 59 58 57 56 56 55 53 54 52 52 51 50 49 49 44 45 45 46 44 44 45 47 49 50 53 57 56 55 54 54 54 54 55 55 55
58 58 60 59 61 60 59 58 58 58 57 55 55 54 52 53 50 50 50 48 48 49 47 43 44 42 41 41 41 40 43 46 49 54 55 54 54 53 52 52 51 52 52
57 57 59 60 60 60 59 59 59 57 57 57 56 53 51 51 49 49 49 49 49 50 48 44 42 44 41 42 39 39 37 38 43 49 50 52 52 51 51 51 50 50 50
58 58 58 60 60 60 59 59 58 57 56 56 55 52 50 49 48 48 49 48 48 46 46 43 42 40 38 38 37 34 33 33 33 39 44 46 47 49 50 49 50 49 49
57 58 59 59 60 59 59 58 58 56 55 53 52 52 51 52 53 52 49 48 47 46 44 41 35 35 34 33 32 31 30 31 31 31 34 36 36 36 41 44 48 48 48
55 58 58 58 57 59 58 57 56 55 54 53 52 53 54 55 55 55 54 53 47 42 38 35 33 32 29 29 30 29 29 29 30 34 31 33 36 33 36 41 47 47 47
53 57 57 57 57 57 58 57 57 55 53 52 52 52 52 53 51 51 52 52 52 51 46 36 32 29 29 30 30 28 26 27 27 29 30 29 29 30 33 38 45 46 46
53 57 56 56 56 56 57 56 55 52 49 48 47 45 44 43 44 42 41 40 39 38 37 37 33 30 30 30 30 29 27 26 28 29 28 27 27 28 30 30 42 43 44
52 56 56 55 54 53 54 53 50 48 46 46 47 46 46 46 49 48 40 37 36 39 48 49 47 47 46 43 36 31 30 29 27 28 28 29 27 29 28 29 31 40 41
55 55 53 53 52 50 53 52 50 48 45 45 46 47 49 46 48 45 37 35 31 29 33 33 29 33 33 38 38 30 29 28 27 27 29 28 26 27 28 29 30 29 31

GFSMA_sfc_temp_210.txt.gz
Temp
81 81 83 80 82 83 82 84 82 82 83 85 85 85 86 87 86 83 84 72 73 73 76 75 75 75 74 74 74 74 73 73 73 74 73 73 73 73 73 73 73 73 73
80 80 80 80 80 78 79 80 83 82 82 84 84 83 84 84 85 83 78 70 72 72 74 75 75 75 74 74 74 73 73 73 73 73 73 73 72 73 73 73 73 73 73
77 78 79 79 81 79 78 78 82 83 82 81 81 82 81 82 81 81 76 71 71 71 72 75 75 74 74 74 73 73 73 73 72 72 72 72 73 72 72 72 72 72 73
69 72 72 73 78 78 76 77 79 77 77 79 78 79 79 81 80 79 76 70 75 73 71 72 74 73 74 74 73 73 73 72 72 72 72 72 72 72 72 72 72 72 72
75 70 68 69 71 73 75 76 76 75 71 70 72 76 79 77 77 77 72 74 73 69 70 71 71 72 72 72 72 72 73 72 72 72 71 71 71 72 72 71 72 72 72
74 72 73 71 69 69 69 72 74 72 72 66 67 70 73 73 74 72 72 71 69 66 67 72 75 74 71 71 71 71 72 72 71 71 71 71 71 72 71 71 71 71 71
73 69 67 70 72 70 70 69 69 68 67 68 63 63 64 68 71 69 69 66 64 65 67 71 71 69 72 69 69 70 72 71 71 71 71 71 71 71 71 71 70 70 71
72 70 71 67 67 66 69 68 67 66 67 66 66 62 57 59 60 61 63 63 64 64 65 69 70 67 66 70 69 66 67 70 70 69 70 70 70 70 70 70 70 70 70
70 70 67 70 66 66 65 67 67 67 65 63 72 70 57 56 57 58 56 59 60 59 60 62 63 64 66 68 67 67 65 66 68 70 69 67 68 68 70 70 70 70 69
70 70 69 71 71 67 65 66 67 66 68 62 68 71 75 68 57 52 55 54 55 56 57 58 60 60 61 63 62 62 64 64 66 68 68 68 69 69 67 69 69 69 68
66 68 70 72 72 70 65 65 66 65 67 65 66 66 70 73 74 60 51 51 53 53 54 55 57 57 59 61 63 64 64 64 65 65 65 66 67 68 68 67 67 67 67
65 65 67 70 71 70 66 65 66 65 65 68 69 69 68 67 67 62 54 51 49 50 52 53 54 55 58 61 61 62 63 63 63 64 65 66 67 67 68 68 67 66 66
63 62 64 65 68 69 66 68 66 64 64 67 69 67 71 71 70 65 56 51 49 51 50 51 51 53 57 58 59 61 62 63 63 63 64 64 65 65 65 65 65 65 64
61 59 59 64 67 68 66 67 65 64 64 69 69 68 68 66 66 61 56 54 49 49 48 48 49 50 54 56 58 59 58 60 60 60 60 61 61 62 63 63 63 62 62
56 57 58 59 64 65 63 63 63 63 64 67 67 67 67 65 64 62 61 59 60 48 46 46 47 48 51 53 56 56 55 58 58 57 57 57 58 58 58 58 59 59 59
56 56 57 58 62 62 62 62 62 63 63 64 66 67 63 63 62 60 59 62 63 55 45 47 44 45 49 52 53 53 54 55 56 56 55 54 55 55 55 55 55 55 56
57 56 58 58 58 59 62 62 62 62 63 63 63 63 61 62 58 58 59 61 61 55 44 44 45 45 44 46 49 53 55 56 55 55 54 53 53 53 53 53 53 53 53
56 56 59 56 57 61 61 62 61 61 61 61 63 61 59 58 57 58 59 59 57 54 47 41 42 41 41 43 45 48 50 53 53 54 54 53 52 52 51 51 51 51 51
54 55 56 55 58 59 59 60 61 61 62 61 61 59 57 56 55 55 57 56 54 52 49 44 40 42 41 45 49 52 53 53 54 52 52 51 51 51 50 50 50 50 50
53 55 56 56 57 59 60 59 60 59 59 59 57 56 56 56 56 56 55 52 51 49 47 43 41 40 43 49 52 50 48 52 50 52 50 50 50 50 50 49 49 48 48
53 54 55 54 58 59 58 57 57 55 54 54 55 55 56 58 57 56 52 51 50 48 46 44 43 45 49 51 49 51 48 48 48 50 48 49 49 50 50 49 48 47 47
53 52 54 54 57 58 57 56 54 53 53 53 52 54 55 55 55 55 55 54 53 50 49 49 48 50 50 49 51 50 49 47 43 50 46 45 48 46 47 48 47 47 47
52 51 54 53 58 56 56 56 55 54 53 54 53 53 53 55 55 56 56 56 56 57 58 57 52 51 50 51 50 48 47 46 43 46 47 42 46 43 46 46 45 45 45
50 51 52 56 55 55 56 55 54 53 53 53 53 53 52 52 54 53 54 52 52 53 53 54 52 51 51 52 51 49 46 45 45 45 48 39 45 43 46 46 43 44 45
48 51 54 56 54 52 53 52 51 49 49 49 51 52 54 53 53 53 52 50 49 48 50 49 48 47 47 47 49 49 46 44 41 41 45 43 43 42 44 45 46 44 44
48 53 51 51 52 49 52 52 49 49 47 48 51 54 53 54 53 53 50 48 45 45 46 46 46 47 47 47 48 49 48 43 43 40 42 42 42 45 39 45 45 46 47